CW0630 Weather Reports


Display with metric or nautical units.
time (UTC)temp
F
wind
direction
speed
MPH
gust
MPH
rain 1hr
in
rain 24hr
in
rain mn
in
humidity
%
barometer
mb
20260906051027 72 360 0.0 0.0 0.00 0.36 0.00 96 1012.5
20260906041036 72 312 0.0 0.0 0.00 0.36 0.00 96 1012.6
20260906031023 72 312 0.0 0.0 0.00 0.36 0.36 95 1012.4
20260906021030 73 312 0.0 0.0 0.00 0.36 0.36 94 1012.5
20260906011018 74 312 0.0 0.0 0.00 0.36 0.36 93 1012.1
20260906001024 75 312 0.0 0.0 0.00 0.36 0.36 92 1011.3
20260905231040 75 292 0.0 0.0 0.00 0.38 0.36 90 1010.9
20260905221028 76 254 0.0 0.0 0.00 0.62 0.36 88 1010.8
20260905211019 78 248 0.0 0.0 0.00 0.62 0.36 85 1011.0
20260905201017 76 213 0.0 0.0 0.00 0.62 0.36 87 1010.8
20260905191030 76 141 0.0 0.0 0.04 0.62 0.36 91 1011.8
20260905181026 76 128 0.0 0.0 0.00 0.58 0.32 90 1011.9
20260905171028 73 319 0.0 0.0 0.31 0.58 0.32 92 1012.6
20260905161019 80 32 0.0 0.0 0.00 0.27 0.01 84 1013.1
20260905151032 81 321 0.0 2.0 0.00 0.27 0.01 78 1012.7
20260905141043 83 58 0.0 0.0 0.00 0.27 0.01 75 1012.4
20260905131019 78 75 0.0 0.0 0.00 0.27 0.01 85 1011.9
20260905121016 74 234 0.0 1.0 0.00 0.27 0.01 96 1012.0
20260905111013 70 234 0.0 0.0 0.01 0.27 0.01 96 1011.7
20260905101024 70 234 0.0 0.0 0.00 0.26 0.00 96 1011.3
20260905091036 70 234 0.0 0.0 0.00 0.26 0.00 96 1010.7
20260905081036 70 234 0.0 0.0 0.00 0.26 0.00 96 1011.2
20260905071023 71 230 0.0 0.0 0.00 0.26 0.00 96 1011.6
20260905061019 71 229 0.0 0.0 0.00 0.26 0.00 96 1012.1